| time (UTC) | temp F | wind direction | speed MPH | gust MPH | rain 1hr in | rain 24hr in | rain mn in | humidity % | barometer mb |
| 20260508033018 | 58 | 0.0 | 2.0 | 0.00 | 0.01 | 0.01 | 84 | 1016.3 | |
| 20260508032018 | 58 | 90 | 1.0 | 2.0 | 0.00 | 0.01 | 0.01 | 84 | 1016.0 |
| 20260508031018 | 58 | 90 | 1.0 | 2.0 | 0.00 | 0.01 | 0.01 | 84 | 1015.9 |
| 20260508030018 | 57 | 68 | 2.0 | 4.0 | 0.00 | 0.01 | 0.01 | 83 | 1016.0 |
| 20260508025018 | 58 | 90 | 1.0 | 3.0 | 0.00 | 0.01 | 0.01 | 84 | 1016.1 |
| 20260508024018 | 57 | 68 | 1.0 | 5.0 | 0.00 | 0.01 | 0.01 | 84 | 1016.0 |
| 20260508023018 | 57 | 0.0 | 2.0 | 0.00 | 0.01 | 0.01 | 84 | 1016.0 | |
| 20260508022018 | 57 | 68 | 2.0 | 3.0 | 0.00 | 0.01 | 0.01 | 84 | 1015.8 |
| 20260508021018 | 58 | 90 | 1.0 | 2.0 | 0.00 | 0.01 | 0.01 | 84 | 1015.8 |
| 20260508020018 | 57 | 113 | 3.0 | 4.0 | 0.00 | 0.01 | 0.01 | 83 | 1016.0 |
| 20260508015018 | 57 | 113 | 2.0 | 4.0 | 0.00 | 0.01 | 0.01 | 83 | 1015.4 |
| 20260508014018 | 58 | 113 | 4.0 | 5.0 | 0.00 | 0.01 | 0.01 | 83 | 1015.2 |
| 20260508013018 | 58 | 90 | 2.0 | 3.0 | 0.00 | 0.01 | 0.01 | 82 | 1014.6 |
| 20260508012018 | 58 | 113 | 3.0 | 6.0 | 0.00 | 0.01 | 0.01 | 82 | 1014.8 |
| 20260508011018 | 58 | 135 | 6.0 | 8.0 | 0.00 | 0.01 | 0.01 | 83 | 1014.9 |
| 20260508010018 | 58 | 135 | 5.0 | 8.0 | 0.00 | 0.01 | 0.01 | 83 | 1015.1 |
| 20260508005018 | 58 | 135 | 5.0 | 7.0 | 0.00 | 0.01 | 0.01 | 83 | 1015.0 |
| 20260508004018 | 58 | 113 | 4.0 | 7.0 | 0.00 | 0.01 | 0.01 | 82 | 1014.7 |
| 20260508003018 | 58 | 135 | 4.0 | 7.0 | 0.00 | 0.01 | 0.01 | 83 | 1015.1 |
| 20260508002018 | 58 | 113 | 4.0 | 8.0 | 0.00 | 0.01 | 0.01 | 82 | 1015.1 |
| 20260508001018 | 58 | 113 | 6.0 | 8.0 | 0.00 | 0.01 | 0.01 | 82 | 1015.2 |
| 20260508000018 | 58 | 113 | 7.0 | 10.0 | 0.00 | 0.01 | 0.01 | 82 | 1015.3 |
| 20260507235018 | 58 | 135 | 7.0 | 10.0 | 0.00 | 0.01 | 0.01 | 82 | 1015.5 |
| 20260507234018 | 58 | 135 | 6.0 | 9.0 | 0.00 | 0.01 | 0.01 | 82 | 1015.5 |
| 20260507233018 | 58 | 90 | 3.0 | 6.0 | 0.00 | 0.01 | 0.01 | 82 | 1015.5 |
| 20260507232018 | 58 | 135 | 3.0 | 5.0 | 0.00 | 0.01 | 0.01 | 86 | 1015.6 |
| 20260507231016 | 58 | 135 | 2.0 | 5.0 | 0.00 | 0.01 | 0.01 | 85 | 1015.9 |
| 20260507230018 | 58 | 135 | 4.0 | 6.0 | 0.01 | 0.01 | 0.01 | 85 | 1015.9 |
| 20260507225018 | 58 | 135 | 4.0 | 6.0 | 0.01 | 0.01 | 0.01 | 84 | 1015.8 |
| 20260507224018 | 58 | 90 | 3.0 | 8.0 | 0.01 | 0.01 | 0.01 | 83 | 1016.0 |
| 20260507223018 | 58 | 113 | 3.0 | 6.0 | 0.01 | 0.01 | 0.01 | 83 | 1015.9 |
| 20260507222018 | 58 | 135 | 4.0 | 7.0 | 0.01 | 0.01 | 0.01 | 82 | 1016.4 |
| 20260507221018 | 59 | 135 | 4.0 | 8.0 | 0.01 | 0.01 | 0.01 | 81 | 1016.5 |
| 20260507220018 | 58 | 135 | 7.0 | 9.0 | 0.00 | 0.00 | 0.00 | 79 | 1016.6 |
| 20260507215018 | 60 | 113 | 7.0 | 12.0 | 0.00 | 0.00 | 0.00 | 78 | 1016.5 |
| 20260507214018 | 59 | 135 | 7.0 | 12.0 | 0.00 | 0.00 | 0.00 | 82 | 1016.5 |
| 20260507213018 | 59 | 135 | 7.0 | 10.0 | 0.00 | 0.00 | 0.00 | 80 | 1016.7 |
| 20260507212018 | 60 | 135 | 6.0 | 10.0 | 0.00 | 0.00 | 0.00 | 76 | 1017.2 |
| 20260507211018 | 59 | 90 | 4.0 | 10.0 | 0.00 | 0.00 | 0.00 | 77 | 1017.2 |
| 20260507210018 | 59 | 90 | 4.0 | 7.0 | 0.00 | 0.00 | 0.00 | 78 | 1017.3 |
| 20260507205018 | 59 | 90 | 5.0 | 9.0 | 0.00 | 0.00 | 0.00 | 76 | 1017.2 |
| 20260507204018 | 59 | 90 | 5.0 | 8.0 | 0.00 | 0.00 | 0.00 | 77 | 1017.3 |
| 20260507203022 | 58 | 90 | 5.0 | 9.0 | 0.00 | 0.00 | 0.00 | 79 | 1017.3 |
| 20260507202022 | 57 | 90 | 7.0 | 13.0 | 0.00 | 0.00 | 0.00 | 79 | 1017.4 |
| 20260507201022 | 58 | 113 | 8.0 | 13.0 | 0.00 | 0.00 | 0.00 | 81 | 1017.9 |
| 20260507200018 | 58 | 113 | 9.0 | 13.0 | 0.00 | 0.00 | 0.00 | 82 | 1017.8 |
| 20260507195016 | 58 | 135 | 9.0 | 13.0 | 0.00 | 0.00 | 0.00 | 82 | 1017.7 |
| 20260507194018 | 60 | 135 | 7.0 | 15.0 | 0.00 | 0.00 | 0.00 | 72 | 1018.2 |
| 20260507193018 | 61 | 113 | 6.0 | 10.0 | 0.00 | 0.00 | 0.00 | 64 | 1018.4 |
| 20260507192018 | 61 | 68 | 8.0 | 14.0 | 0.00 | 0.00 | 0.00 | 64 | 1018.2 |
| 20260507191018 | 62 | 135 | 8.0 | 13.0 | 0.00 | 0.00 | 0.00 | 63 | 1018.1 |
| 20260507190018 | 62 | 135 | 5.0 | 8.0 | 0.00 | 0.00 | 0.00 | 62 | 1018.9 |
| 20260507185018 | 62 | 90 | 4.0 | 8.0 | 0.00 | 0.00 | 0.00 | 61 | 1018.6 |
| 20260507184018 | 63 | 90 | 5.0 | 11.0 | 0.00 | 0.00 | 0.00 | 61 | 1018.3 |
| 20260507183018 | 63 | 90 | 6.0 | 12.0 | 0.00 | 0.00 | 0.00 | 59 | 1018.3 |
| 20260507182018 | 63 | 90 | 6.0 | 8.0 | 0.00 | 0.00 | 0.00 | 58 | 1018.8 |
| 20260507181018 | 64 | 90 | 6.0 | 14.0 | 0.00 | 0.00 | 0.00 | 59 | 1018.5 |
| 20260507180018 | 65 | 90 | 6.0 | 14.0 | 0.00 | 0.00 | 0.00 | 59 | 1018.8 |
| 20260507175018 | 64 | 68 | 9.0 | 16.0 | 0.00 | 0.00 | 0.00 | 59 | 1019.4 |
| 20260507174016 | 63 | 68 | 9.0 | 16.0 | 0.00 | 0.00 | 0.00 | 59 | 1018.9 |
| 20260507173016 | 64 | 68 | 12.0 | 16.0 | 0.00 | 0.00 | 0.00 | 57 | 1018.9 |
| 20260507172016 | 63 | 68 | 10.0 | 17.0 | 0.00 | 0.00 | 0.00 | 62 | 1018.9 |
| 20260507171018 | 62 | 68 | 9.0 | 13.0 | 0.00 | 0.00 | 0.00 | 63 | 1019.1 |
| 20260507170016 | 61 | 68 | 9.0 | 14.0 | 0.00 | 0.00 | 0.00 | 63 | 1019.4 |
| 20260507165016 | 61 | 68 | 11.0 | 16.0 | 0.00 | 0.00 | 0.00 | 64 | 1019.1 |
| 20260507164016 | 60 | 45 | 7.0 | 14.0 | 0.00 | 0.00 | 0.00 | 66 | 1019.2 |
| 20260507163016 | 61 | 68 | 11.0 | 15.0 | 0.00 | 0.00 | 0.00 | 67 | 1019.4 |
| 20260507162016 | 59 | 68 | 11.0 | 17.0 | 0.00 | 0.00 | 0.00 | 68 | 1019.5 |
| 20260507161016 | 58 | 68 | 8.0 | 15.0 | 0.00 | 0.00 | 0.00 | 69 | 1019.6 |
| 20260507160016 | 58 | 68 | 7.0 | 14.0 | 0.00 | 0.00 | 0.00 | 69 | 1019.4 |
| 20260507155016 | 58 | 68 | 11.0 | 18.0 | 0.00 | 0.00 | 0.00 | 70 | 1019.4 |
| 20260507154016 | 58 | 68 | 11.0 | 19.0 | 0.00 | 0.00 | 0.00 | 71 | 1019.4 |
| 20260507153016 | 58 | 68 | 11.0 | 16.0 | 0.00 | 0.00 | 0.00 | 72 | 1019.5 |
| 20260507152016 | 58 | 68 | 12.0 | 19.0 | 0.00 | 0.00 | 0.00 | 72 | 1019.9 |
| 20260507151016 | 56 | 68 | 11.0 | 18.0 | 0.00 | 0.00 | 0.00 | 74 | 1019.7 |
| 20260507150016 | 56 | 45 | 9.0 | 16.0 | 0.00 | 0.00 | 0.00 | 74 | 1020.0 |
| 20260507145016 | 56 | 68 | 11.0 | 16.0 | 0.00 | 0.00 | 0.00 | 75 | 1019.8 |
| 20260507144016 | 56 | 68 | 12.0 | 18.0 | 0.00 | 0.00 | 0.00 | 75 | 1019.5 |
| 20260507143016 | 56 | 68 | 10.0 | 16.0 | 0.00 | 0.00 | 0.00 | 76 | 1019.5 |
| 20260507142016 | 55 | 45 | 8.0 | 14.0 | 0.00 | 0.00 | 0.00 | 78 | 1019.9 |
| 20260507141016 | 55 | 45 | 7.0 | 10.0 | 0.00 | 0.00 | 0.00 | 79 | 1019.9 |
| 20260507140016 | 55 | 45 | 9.0 | 16.0 | 0.00 | 0.00 | 0.00 | 80 | 1019.8 |
| 20260507135016 | 55 | 68 | 10.0 | 15.0 | 0.00 | 0.00 | 0.00 | 81 | 1020.3 |
| 20260507134016 | 54 | 68 | 8.0 | 13.0 | 0.00 | 0.00 | 0.00 | 81 | 1020.3 |
| 20260507133016 | 54 | 68 | 9.0 | 14.0 | 0.00 | 0.00 | 0.00 | 82 | 1020.2 |
| 20260507132016 | 54 | 45 | 6.0 | 10.0 | 0.00 | 0.00 | 0.00 | 83 | 1020.3 |
| 20260507131016 | 54 | 68 | 7.0 | 13.0 | 0.00 | 0.00 | 0.00 | 82 | 1020.2 |
| 20260507130016 | 54 | 68 | 8.0 | 12.0 | 0.00 | 0.00 | 0.00 | 83 | 1020.0 |
| 20260507125016 | 54 | 45 | 6.0 | 12.0 | 0.00 | 0.00 | 0.00 | 83 | 1020.3 |
| 20260507124016 | 54 | 45 | 7.0 | 13.0 | 0.00 | 0.01 | 0.00 | 83 | 1020.1 |
| 20260507123016 | 53 | 45 | 7.0 | 13.0 | 0.00 | 0.01 | 0.00 | 83 | 1020.0 |
| 20260507122016 | 54 | 45 | 6.0 | 13.0 | 0.00 | 0.01 | 0.00 | 83 | 1020.0 |
| 20260507121016 | 54 | 45 | 8.0 | 15.0 | 0.00 | 0.01 | 0.00 | 82 | 1019.8 |
| 20260507120016 | 54 | 45 | 6.0 | 12.0 | 0.00 | 0.01 | 0.00 | 82 | 1019.9 |
| 20260507115016 | 55 | 45 | 7.0 | 14.0 | 0.00 | 0.01 | 0.00 | 81 | 1019.8 |
| 20260507114016 | 55 | 45 | 8.0 | 15.0 | 0.00 | 0.01 | 0.00 | 81 | 1019.8 |
| 20260507113016 | 55 | 45 | 7.0 | 11.0 | 0.00 | 0.01 | 0.00 | 81 | 1019.6 |
| 20260507112016 | 55 | 45 | 8.0 | 14.0 | 0.00 | 0.01 | 0.00 | 82 | 1019.5 |
| 20260507111016 | 55 | 45 | 7.0 | 12.0 | 0.00 | 0.01 | 0.00 | 82 | 1019.3 |
| 20260507110017 | 55 | 45 | 7.0 | 13.0 | 0.00 | 0.01 | 0.00 | 83 | 1019.3 |
| 20260507105016 | 55 | 45 | 6.0 | 11.0 | 0.00 | 0.01 | 0.00 | 84 | 1019.1 |
| 20260507104016 | 55 | 45 | 9.0 | 18.0 | 0.00 | 0.01 | 0.00 | 82 | 1019.0 |
| 20260507103016 | 55 | 45 | 8.0 | 15.0 | 0.00 | 0.01 | 0.00 | 81 | 1019.0 |
| 20260507102016 | 55 | 45 | 8.0 | 13.0 | 0.00 | 0.01 | 0.00 | 81 | 1019.1 |
| 20260507101016 | 56 | 45 | 6.0 | 11.0 | 0.00 | 0.01 | 0.00 | 80 | 1019.2 |
| 20260507100016 | 56 | 45 | 8.0 | 11.0 | 0.00 | 0.01 | 0.00 | 80 | 1019.5 |
| 20260507095016 | 56 | 45 | 6.0 | 11.0 | 0.00 | 0.01 | 0.00 | 79 | 1019.3 |
| 20260507094016 | 56 | 45 | 5.0 | 9.0 | 0.00 | 0.01 | 0.00 | 79 | 1019.4 |
| 20260507093016 | 56 | 68 | 7.0 | 12.0 | 0.00 | 0.01 | 0.00 | 79 | 1019.1 |
| 20260507092016 | 56 | 45 | 8.0 | 15.0 | 0.00 | 0.01 | 0.00 | 78 | 1018.8 |
| 20260507091016 | 56 | 45 | 6.0 | 9.0 | 0.00 | 0.01 | 0.00 | 79 | 1018.7 |
| 20260507090016 | 57 | 45 | 6.0 | 16.0 | 0.00 | 0.01 | 0.00 | 78 | 1018.8 |
| 20260507085016 | 57 | 45 | 5.0 | 10.0 | 0.00 | 0.01 | 0.00 | 78 | 1018.6 |
| 20260507084016 | 57 | 68 | 8.0 | 12.0 | 0.00 | 0.01 | 0.00 | 78 | 1018.5 |
| 20260507083016 | 57 | 45 | 5.0 | 9.0 | 0.00 | 0.01 | 0.00 | 78 | 1018.4 |
| 20260507082016 | 57 | 45 | 5.0 | 10.0 | 0.00 | 0.01 | 0.00 | 78 | 1018.1 |
| 20260507081016 | 57 | 45 | 5.0 | 10.0 | 0.00 | 0.01 | 0.00 | 78 | 1018.1 |
| 20260507080016 | 58 | 45 | 5.0 | 9.0 | 0.00 | 0.01 | 0.00 | 78 | 1018.0 |
| 20260507075020 | 58 | 45 | 3.0 | 5.0 | 0.00 | 0.01 | 0.00 | 78 | 1017.7 |
| 20260507074020 | 58 | 45 | 4.0 | 9.0 | 0.00 | 0.01 | 0.00 | 78 | 1017.7 |
| 20260507073020 | 58 | 45 | 6.0 | 13.0 | 0.00 | 0.01 | 0.00 | 77 | 1017.4 |
| 20260507072016 | 58 | 45 | 4.0 | 6.0 | 0.00 | 0.01 | 0.00 | 78 | 1017.2 |
| 20260507071016 | 58 | 45 | 5.0 | 9.0 | 0.00 | 0.01 | 0.00 | 78 | 1016.8 |
| 20260507070016 | 58 | 45 | 5.0 | 9.0 | 0.00 | 0.01 | 0.00 | 78 | 1016.8 |
| 20260507065016 | 59 | 68 | 7.0 | 13.0 | 0.00 | 0.01 | 0.00 | 79 | 1016.9 |
| 20260507064016 | 59 | 68 | 7.0 | 12.0 | 0.00 | 0.01 | 0.00 | 80 | 1016.5 |
| 20260507063016 | 58 | 68 | 7.0 | 11.0 | 0.00 | 0.01 | 0.00 | 81 | 1016.4 |
| 20260507062016 | 58 | 68 | 7.0 | 11.0 | 0.00 | 0.01 | 0.00 | 81 | 1016.2 |
| 20260507061016 | 58 | 68 | 8.0 | 11.0 | 0.00 | 0.01 | 0.00 | 80 | 1016.2 |
| 20260507060016 | 58 | 68 | 6.0 | 10.0 | 0.00 | 0.01 | 0.00 | 79 | 1016.1 |
| 20260507055016 | 59 | 68 | 5.0 | 9.0 | 0.00 | 0.01 | 0.00 | 79 | 1016.2 |
| 20260507054016 | 59 | 68 | 8.0 | 12.0 | 0.00 | 0.01 | 0.00 | 79 | 1016.2 |
| 20260507053016 | 59 | 68 | 7.0 | 11.0 | 0.00 | 0.01 | 0.00 | 78 | 1016.2 |
| 20260507052016 | 59 | 68 | 7.0 | 13.0 | 0.00 | 0.01 | 0.00 | 78 | 1016.0 |
| 20260507051016 | 59 | 68 | 7.0 | 13.0 | 0.00 | 0.01 | 0.00 | 77 | 1016.0 |
| 20260507050016 | 59 | 45 | 7.0 | 14.0 | 0.00 | 0.01 | 0.01 | 78 | 1015.9 |
| 20260507045016 | 59 | 68 | 7.0 | 11.0 | 0.00 | 0.01 | 0.01 | 80 | 1015.8 |
| 20260507044016 | 60 | 68 | 6.0 | 10.0 | 0.00 | 0.01 | 0.01 | 82 | 1015.7 |
| 20260507043016 | 60 | 45 | 4.0 | 8.0 | 0.00 | 0.01 | 0.01 | 82 | 1015.6 |
| 20260507042016 | 60 | 68 | 6.0 | 9.0 | 0.00 | 0.01 | 0.01 | 81 | 1015.1 |
| 20260507041016 | 60 | 68 | 5.0 | 8.0 | 0.00 | 0.01 | 0.01 | 81 | 1015.2 |
| 20260507040016 | 60 | 68 | 4.0 | 7.0 | 0.00 | 0.01 | 0.01 | 80 | 1015.0 |
| 20260507035016 | 60 | 68 | 4.0 | 5.0 | 0.00 | 0.01 | 0.01 | 79 | 1014.7 |
| 20260507034016 | 61 | 68 | 4.0 | 6.0 | 0.00 | 0.01 | 0.01 | 79 | 1014.7 |